TimeCST,TemperatureF,Dew PointF,Humidity,Sea Level PressureIn,VisibilityMPH,Wind Direction,Wind SpeedMPH,Gust SpeedMPH,PrecipitationIn,Events,Conditions,WindDirDegrees,DateUTC
12:53 AM,17.1,12.9,84,30.25,10.0,Calm,Calm,-,N/A,,Clear,0,2013-12-31 06:53:00
1:53 AM,19.0,14.0,81,30.22,10.0,Calm,Calm,-,N/A,,Clear,0,2013-12-31 07:53:00
2:53 AM,18.0,12.9,81,30.19,10.0,Calm,Calm,-,N/A,,Clear,0,2013-12-31 08:53:00
3:53 AM,17.1,12.9,84,30.16,10.0,East,3.5,-,N/A,,Clear,80,2013-12-31 09:53:00
4:53 AM,17.1,12.0,81,30.12,10.0,NE,3.5,-,N/A,,Clear,40,2013-12-31 10:53:00
5:53 AM,19.0,14.0,81,30.10,10.0,North,3.5,-,N/A,,Clear,360,2013-12-31 11:53:00
6:53 AM,21.9,15.1,75,30.08,10.0,Calm,Calm,-,N/A,,Clear,0,2013-12-31 12:53:00
7:53 AM,19.9,14.0,78,30.09,10.0,SW,3.5,-,N/A,,Clear,230,2013-12-31 13:53:00
8:53 AM,19.9,15.1,81,30.08,10.0,WSW,8.1,-,N/A,,Clear,250,2013-12-31 14:53:00
9:53 AM,30.9,19.9,64,30.08,10.0,WSW,8.1,-,N/A,,Clear,250,2013-12-31 15:53:00
10:53 AM,35.1,19.9,54,30.08,10.0,West,12.7,-,N/A,,Clear,260,2013-12-31 16:53:00
11:53 AM,39.9,21.9,49,30.05,10.0,West,11.5,-,N/A,,Clear,270,2013-12-31 17:53:00
12:53 PM,48.0,24.1,39,30.01,10.0,WSW,8.1,-,N/A,,Clear,240,2013-12-31 18:53:00
1:53 PM,57.9,24.1,27,29.97,10.0,NW,17.3,-,N/A,,Clear,310,2013-12-31 19:53:00
2:53 PM,57.9,23.0,26,29.97,10.0,NW,16.1,-,N/A,,Clear,320,2013-12-31 20:53:00
3:53 PM,57.9,24.1,27,29.98,10.0,NNW,11.5,-,N/A,,Clear,340,2013-12-31 21:53:00
4:53 PM,51.1,23.0,33,30.03,10.0,North,10.4,-,N/A,,Clear,350,2013-12-31 22:53:00
5:53 PM,43.0,21.9,43,30.06,10.0,North,8.1,-,N/A,,Clear,350,2013-12-31 23:53:00
6:53 PM,35.1,19.9,54,30.06,10.0,ENE,4.6,-,N/A,,Clear,60,2014-01-01 00:53:00
7:53 PM,37.9,21.9,53,30.05,10.0,East,9.2,-,N/A,,Clear,90,2014-01-01 01:53:00
8:53 PM,35.1,21.9,59,30.06,10.0,East,9.2,-,N/A,,Clear,90,2014-01-01 02:53:00
9:53 PM,32.0,21.0,64,30.04,10.0,East,12.7,-,N/A,,Clear,90,2014-01-01 03:53:00
10:53 PM,28.0,19.9,72,30.04,10.0,East,9.2,-,N/A,,Clear,90,2014-01-01 04:53:00
11:53 PM,24.1,18.0,77,30.04,10.0,ENE,6.9,-,N/A,,Clear,70,2014-01-01 05:53:00